sat.trackr.live / text

‹ back to catalog

GONETS-M 5

NORAD 39249 · 2013-048A

PAYLOAD ACTIVE UNKNOWN

§ Identity

Operator
Country
CIS
Launch date
2013-09-11
Launch site
PLMSC
Launch vehicle
Mass (kg)
RCS (m²)
1.68

External: N2YO · Heavens-Above · Gunter

§ Orbital elements

Epoch: 2026-09-20T04:21:20.823264Z

Period
115.86 min
Inclination
82.4784°
Eccentricity
0.0016675
Mean motion
12.42894098 rev/d
Perigee alt
1,481.2 km
Apogee alt
1,507.5 km
Semi-major
7,872.5 km
B*
-4.7802e-4
RAAN
284.1633°
Arg perigee
10.6230°
Mean anomaly
349.5198°
Rev number
59,068

§ Raw data

GONETS-M 51 39249U 13048A   26263.18149101 -.00000056  00000+0 -47802-3 0  99932 39249  82.4784 284.1633 0016675  10.6230 349.5198 12.42894098590680

JSON: /api/v1/satellites/39249 · /tle

For live sub-satellite position, see the globe view (requires WebGL).

§ Visibility from observer

Set your observer location to see the next 7 days of passes ≥ 10°. The values pass through the URL so the page stays shareable.

No JS? Fill the form by hand. The geolocation button needs JavaScript.

§ Radio — SatNOGS DB

ModeDescriptionDownlinkUplink
FM UHF Unknown 387.175 MHz
FM UHF Unknown 387.462 MHz
FM UHF Unknown 388.787 MHz
FM UHF Unknown 388.687 MHz

4 transmitters · refreshed weekly from db.satnogs.org